| time (UTC) | temp F | wind direction | speed knots | gust knots | rain 1hr in | rain 24hr in | rain mn in | humidity % | barometer mb |
| 20260904234612 | 82 | 254 | 3.5 | 4.3 | 0.00 | 0.00 | 0.00 | 33 | 1010.9 |
| 20260904234107 | 83 | 245 | 2.6 | 3.5 | 0.00 | 0.00 | 0.00 | 34 | 1010.9 |
| 20260904233603 | 83 | 2 | 1.7 | 1.7 | 0.00 | 0.00 | 0.00 | 34 | 1010.8 |
| 20260904233058 | 82 | 273 | 6.1 | 7.0 | 0.00 | 0.00 | 0.00 | 35 | 1011.0 |
| 20260904232555 | 84 | 232 | 3.5 | 5.2 | 0.00 | 0.00 | 0.00 | 35 | 1011.0 |
| 20260904232051 | 84 | 350 | 0.9 | 0.9 | 0.00 | 0.00 | 0.00 | 36 | 1011.0 |
| 20260904231546 | 84 | 244 | 1.7 | 1.7 | 0.00 | 0.00 | 0.00 | 35 | 1011.0 |
| 20260904231041 | 83 | 240 | 1.7 | 1.7 | 0.00 | 0.00 | 0.00 | 35 | 1011.1 |
| 20260904230540 | 83 | 314 | 0.9 | 0.9 | 0.00 | 0.00 | 0.00 | 35 | 1011.1 |
| 20260904230036 | 83 | 54 | 1.7 | 1.7 | 0.00 | 0.00 | 0.00 | 35 | 1011.2 |
| 20260904225534 | 82 | 67 | 2.6 | 3.5 | 0.00 | 0.00 | 0.00 | 36 | 1011.1 |
| 20260904225033 | 84 | 57 | 0.9 | 0.9 | 0.00 | 0.00 | 0.00 | 34 | 1011.4 |
| 20260904224529 | 82 | 229 | 1.7 | 1.7 | 0.00 | 0.00 | 0.00 | 35 | 1011.2 |
| 20260904224028 | 83 | 253 | 3.5 | 4.3 | 0.00 | 0.00 | 0.00 | 36 | 1011.4 |
| 20260904223527 | 82 | 271 | 0.9 | 0.9 | 0.00 | 0.00 | 0.00 | 36 | 1011.4 |
| 20260904223024 | 83 | 225 | 1.7 | 3.5 | 0.00 | 0.00 | 0.00 | 36 | 1011.6 |
| 20260904222519 | 84 | 271 | 3.5 | 4.3 | 0.00 | 0.00 | 0.00 | 35 | 1011.5 |
| 20260904222014 | 83 | 313 | 0.9 | 0.9 | 0.00 | 0.00 | 0.00 | 35 | 1011.6 |
| 20260904221508 | 84 | 58 | 1.7 | 1.7 | 0.00 | 0.00 | 0.00 | 36 | 1011.7 |
| 20260904221003 | 83 | 352 | 1.7 | 1.7 | 0.00 | 0.00 | 0.00 | 37 | 1011.9 |
| 20260904220503 | 82 | 213 | 2.6 | 3.5 | 0.00 | 0.00 | 0.00 | 36 | 1011.8 |
| 20260904215958 | 83 | 304 | 2.6 | 3.5 | 0.00 | 0.00 | 0.00 | 37 | 1011.8 |
| 20260904215453 | 83 | 277 | 0.9 | 1.7 | 0.00 | 0.00 | 0.00 | 37 | 1012.0 |
| 20260904214948 | 83 | 28 | 0.9 | 0.9 | 0.00 | 0.00 | 0.00 | 37 | 1012.0 |
| 20260904214444 | 82 | 309 | 0.9 | 0.9 | 0.00 | 0.00 | 0.00 | 39 | 1012.0 |
| 20260904213939 | 82 | 14 | 1.7 | 1.7 | 0.00 | 0.00 | 0.00 | 39 | 1012.0 |
| 20260904213432 | 81 | 265 | 1.7 | 1.7 | 0.00 | 0.00 | 0.00 | 40 | 1012.0 |
| 20260904212929 | 82 | 219 | 0.9 | 0.9 | 0.00 | 0.00 | 0.00 | 40 | 1012.1 |
| 20260904212428 | 82 | 211 | 0.0 | 0.9 | 0.00 | 0.00 | 0.00 | 40 | 1012.1 |
| 20260904211924 | 82 | 62 | 2.6 | 3.5 | 0.00 | 0.00 | 0.00 | 40 | 1012.2 |
| 20260904211418 | 81 | 32 | 1.7 | 3.5 | 0.00 | 0.00 | 0.00 | 40 | 1012.1 |
| 20260904210914 | 80 | 262 | 0.0 | 0.0 | 0.00 | 0.00 | 0.00 | 40 | 1012.2 |
| 20260904210413 | 79 | 254 | 0.9 | 1.7 | 0.00 | 0.00 | 0.00 | 41 | 1012.4 |
| 20260904205909 | 80 | 244 | 3.5 | 4.3 | 0.00 | 0.00 | 0.00 | 41 | 1012.2 |
| 20260904205404 | 81 | 261 | 3.5 | 4.3 | 0.00 | 0.00 | 0.00 | 43 | 1012.4 |
| 20260904204901 | 80 | 63 | 0.9 | 0.9 | 0.00 | 0.00 | 0.00 | 42 | 1012.4 |
| 20260904204357 | 81 | 20 | 2.6 | 3.5 | 0.00 | 0.00 | 0.00 | 43 | 1012.6 |
| 20260904203853 | 80 | 323 | 2.6 | 3.5 | 0.00 | 0.00 | 0.00 | 43 | 1012.4 |
| 20260904203349 | 79 | 63 | 0.9 | 1.7 | 0.00 | 0.00 | 0.00 | 41 | 1012.8 |
| 20260904202844 | 79 | 245 | 3.5 | 4.3 | 0.00 | 0.00 | 0.00 | 43 | 1012.6 |
| 20260904202341 | 79 | 287 | 2.6 | 4.3 | 0.00 | 0.00 | 0.00 | 44 | 1012.6 |
| 20260904201836 | 78 | 338 | 1.7 | 1.7 | 0.00 | 0.00 | 0.00 | 44 | 1012.5 |
| 20260904201336 | 79 | 245 | 3.5 | 4.3 | 0.00 | 0.00 | 0.00 | 45 | 1012.6 |
| 20260904200831 | 79 | 352 | 0.0 | 0.0 | 0.00 | 0.00 | 0.00 | 44 | 1012.8 |
| 20260904200330 | 78 | 13 | 1.7 | 1.7 | 0.00 | 0.00 | 0.00 | 46 | 1012.5 |
| 20260904195825 | 77 | 257 | 0.9 | 0.9 | 0.00 | 0.00 | 0.00 | 47 | 1012.6 |
| 20260904195323 | 78 | 256 | 3.5 | 5.2 | 0.00 | 0.00 | 0.00 | 47 | 1012.7 |
| 20260904194818 | 78 | 253 | 0.9 | 1.7 | 0.00 | 0.00 | 0.00 | 46 | 1012.8 |
| 20260904194317 | 78 | 311 | 1.7 | 1.7 | 0.00 | 0.00 | 0.00 | 48 | 1012.6 |
| 20260904193813 | 78 | 274 | 4.3 | 5.2 | 0.00 | 0.00 | 0.00 | 48 | 1012.9 |
| 20260904193308 | 78 | 89 | 0.0 | 0.0 | 0.00 | 0.00 | 0.00 | 46 | 1012.9 |
| 20260904192803 | 77 | 353 | 0.0 | 0.0 | 0.00 | 0.00 | 0.00 | 49 | 1013.1 |
| 20260904192258 | 77 | 289 | 1.7 | 1.7 | 0.00 | 0.00 | 0.00 | 49 | 1013.1 |
| 20260904191755 | 77 | 267 | 3.5 | 4.3 | 0.00 | 0.00 | 0.00 | 49 | 1013.1 |
| 20260904191251 | 78 | 264 | 2.6 | 3.5 | 0.00 | 0.00 | 0.00 | 49 | 1013.1 |
| 20260904190748 | 77 | 11 | 0.0 | 0.9 | 0.00 | 0.00 | 0.00 | 49 | 1013.2 |
| 20260904190243 | 77 | 289 | 2.6 | 3.5 | 0.00 | 0.00 | 0.00 | 51 | 1013.1 |
| 20260904185739 | 76 | 285 | 1.7 | 1.7 | 0.00 | 0.00 | 0.00 | 51 | 1013.0 |
| 20260904185234 | 76 | 195 | 1.7 | 1.7 | 0.00 | 0.00 | 0.00 | 51 | 1013.2 |
| 20260904184733 | 76 | 302 | 0.9 | 1.7 | 0.00 | 0.00 | 0.00 | 52 | 1013.3 |
| 20260904184229 | 75 | 297 | 2.6 | 3.5 | 0.00 | 0.00 | 0.00 | 52 | 1013.1 |
| 20260904183725 | 75 | 251 | 4.3 | 5.2 | 0.00 | 0.00 | 0.00 | 52 | 1013.2 |
| 20260904183225 | 75 | 7 | 1.7 | 3.5 | 0.00 | 0.00 | 0.00 | 53 | 1013.2 |
| 20260904182720 | 75 | 269 | 4.3 | 5.2 | 0.00 | 0.00 | 0.00 | 54 | 1013.3 |
| 20260904182215 | 75 | 260 | 4.3 | 5.2 | 0.00 | 0.00 | 0.00 | 54 | 1013.4 |
| 20260904181710 | 75 | 267 | 4.3 | 5.2 | 0.00 | 0.00 | 0.00 | 54 | 1013.2 |
| 20260904181210 | 75 | 26 | 2.6 | 4.3 | 0.00 | 0.00 | 0.00 | 55 | 1013.3 |
| 20260904180706 | 75 | 283 | 2.6 | 4.3 | 0.00 | 0.00 | 0.00 | 53 | 1012.9 |
| 20260904180201 | 75 | 78 | 1.7 | 1.7 | 0.00 | 0.00 | 0.00 | 53 | 1013.0 |
| 20260904175700 | 74 | 271 | 1.7 | 1.7 | 0.00 | 0.00 | 0.00 | 55 | 1013.1 |
| 20260904175158 | 74 | 17 | 2.6 | 4.3 | 0.00 | 0.00 | 0.00 | 56 | 1013.0 |
| 20260904174653 | 73 | 253 | 2.6 | 3.5 | 0.00 | 0.00 | 0.00 | 56 | 1013.0 |
| 20260904174149 | 73 | 321 | 0.9 | 0.9 | 0.00 | 0.00 | 0.00 | 57 | 1013.2 |
| 20260904173645 | 72 | 200 | 1.7 | 3.5 | 0.00 | 0.00 | 0.00 | 58 | 1013.0 |
| 20260904173139 | 72 | 237 | 4.3 | 5.2 | 0.00 | 0.00 | 0.00 | 59 | 1012.9 |
| 20260904172636 | 73 | 202 | 1.7 | 1.7 | 0.00 | 0.00 | 0.00 | 59 | 1012.9 |
| 20260904172135 | 72 | 262 | 1.7 | 1.7 | 0.00 | 0.00 | 0.00 | 59 | 1013.0 |
| 20260904171631 | 72 | 282 | 5.2 | 5.2 | 0.00 | 0.00 | 0.00 | 60 | 1013.0 |
| 20260904171126 | 72 | 264 | 1.7 | 3.5 | 0.00 | 0.00 | 0.00 | 60 | 1013.1 |
| 20260904170622 | 72 | 335 | 3.5 | 4.3 | 0.00 | 0.00 | 0.00 | 61 | 1013.0 |
| 20260904170118 | 71 | 291 | 4.3 | 5.2 | 0.00 | 0.00 | 0.00 | 62 | 1012.8 |
| 20260904165616 | 71 | 255 | 4.3 | 5.2 | 0.00 | 0.00 | 0.00 | 62 | 1012.7 |
| 20260904165116 | 71 | 257 | 4.3 | 6.1 | 0.00 | 0.00 | 0.00 | 63 | 1013.0 |
| 20260904164610 | 71 | 329 | 1.7 | 3.5 | 0.00 | 0.00 | 0.00 | 63 | 1012.9 |
| 20260904164106 | 70 | 268 | 3.5 | 4.3 | 0.00 | 0.00 | 0.00 | 63 | 1012.8 |
| 20260904163601 | 70 | 269 | 2.6 | 3.5 | 0.00 | 0.00 | 0.00 | 64 | 1012.8 |
| 20260904163056 | 71 | 240 | 1.7 | 3.5 | 0.00 | 0.00 | 0.00 | 64 | 1012.9 |
| 20260904162550 | 70 | 292 | 4.3 | 5.2 | 0.00 | 0.00 | 0.00 | 65 | 1012.6 |
| 20260904162046 | 69 | 251 | 0.9 | 0.9 | 0.00 | 0.00 | 0.00 | 66 | 1012.7 |
| 20260904161540 | 69 | 245 | 3.5 | 4.3 | 0.00 | 0.00 | 0.00 | 67 | 1012.4 |
| 20260904161036 | 69 | 261 | 3.5 | 3.5 | 0.00 | 0.00 | 0.00 | 68 | 1012.5 |
| 20260904160531 | 68 | 245 | 1.7 | 1.7 | 0.00 | 0.00 | 0.00 | 69 | 1012.7 |
| 20260904160027 | 68 | 337 | 2.6 | 4.3 | 0.00 | 0.00 | 0.00 | 70 | 1012.6 |
| 20260904155520 | 67 | 289 | 0.0 | 0.9 | 0.00 | 0.00 | 0.00 | 71 | 1012.8 |
| 20260904155020 | 67 | 242 | 4.3 | 5.2 | 0.00 | 0.00 | 0.00 | 71 | 1012.6 |
| 20260904154514 | 67 | 311 | 1.7 | 1.7 | 0.00 | 0.00 | 0.00 | 72 | 1012.6 |
| 20260904154009 | 67 | 260 | 0.9 | 1.7 | 0.00 | 0.00 | 0.00 | 72 | 1012.7 |
| 20260904153509 | 67 | 257 | 0.9 | 0.9 | 0.00 | 0.00 | 0.00 | 73 | 1012.9 |
| 20260904153006 | 66 | 260 | 1.7 | 1.7 | 0.00 | 0.00 | 0.00 | 74 | 1012.7 |
| 20260904152501 | 66 | 54 | 0.9 | 0.9 | 0.00 | 0.00 | 0.00 | 75 | 1012.7 |
| 20260904151955 | 66 | 245 | 1.7 | 1.7 | 0.00 | 0.00 | 0.00 | 75 | 1012.8 |
| 20260904151450 | 66 | 332 | 0.9 | 0.9 | 0.00 | 0.00 | 0.00 | 76 | 1012.6 |
| 20260904150945 | 65 | 121 | 1.7 | 1.7 | 0.00 | 0.00 | 0.00 | 76 | 1012.4 |
| 20260904150440 | 64 | 186 | 0.0 | 0.0 | 0.00 | 0.00 | 0.00 | 78 | 1012.4 |
| 20260904145938 | 64 | 287 | 2.6 | 3.5 | 0.00 | 0.00 | 0.00 | 78 | 1012.4 |
| 20260904145434 | 64 | 257 | 2.6 | 3.5 | 0.00 | 0.00 | 0.00 | 79 | 1012.5 |
| 20260904144930 | 63 | 231 | 1.7 | 1.7 | 0.00 | 0.00 | 0.00 | 80 | 1012.5 |
| 20260904144425 | 63 | 226 | 0.9 | 1.7 | 0.00 | 0.00 | 0.00 | 80 | 1012.3 |
| 20260904143921 | 63 | 262 | 1.7 | 1.7 | 0.00 | 0.00 | 0.00 | 80 | 1012.3 |
| 20260904143417 | 63 | 47 | 0.0 | 0.0 | 0.00 | 0.00 | 0.00 | 81 | 1012.2 |
| 20260904142913 | 62 | 39 | 0.0 | 0.0 | 0.00 | 0.00 | 0.00 | 82 | 1012.1 |
| 20260904142409 | 61 | 40 | 0.0 | 0.0 | 0.00 | 0.00 | 0.00 | 83 | 1012.1 |
| 20260904141903 | 61 | 47 | 0.0 | 0.0 | 0.00 | 0.00 | 0.00 | 83 | 1012.1 |
| 20260904141358 | 61 | 63 | 0.9 | 0.9 | 0.00 | 0.00 | 0.00 | 83 | 1012.0 |
| 20260904140855 | 61 | 46 | 0.0 | 0.0 | 0.00 | 0.00 | 0.00 | 84 | 1011.8 |
| 20260904140349 | 61 | 20 | 0.0 | 0.9 | 0.00 | 0.00 | 0.00 | 84 | 1011.9 |
| 20260904135849 | 61 | 17 | 0.0 | 0.0 | 0.00 | 0.00 | 0.00 | 84 | 1011.7 |
| 20260904135343 | 61 | 17 | 0.0 | 0.0 | 0.00 | 0.00 | 0.00 | 84 | 1011.7 |
| 20260904134840 | 60 | 1 | 0.0 | 0.0 | 0.00 | 0.00 | 0.00 | 84 | 1011.7 |
| 20260904134339 | 60 | 359 | 0.0 | 0.0 | 0.00 | 0.00 | 0.00 | 84 | 1011.7 |
| 20260904133834 | 61 | 9 | 0.0 | 0.9 | 0.00 | 0.00 | 0.00 | 83 | 1011.6 |
| 20260904133330 | 61 | 0 | 0.0 | 0.0 | 0.00 | 0.00 | 0.00 | 83 | 1011.5 |
| 20260904132829 | 61 | 15 | 0.0 | 0.0 | 0.00 | 0.00 | 0.00 | 83 | 1011.5 |
| 20260904132324 | 61 | 359 | 0.0 | 0.0 | 0.00 | 0.00 | 0.00 | 83 | 1011.5 |
| 20260904131824 | 61 | 275 | 0.0 | 0.0 | 0.00 | 0.00 | 0.00 | 83 | 1011.3 |
| 20260904131319 | 61 | 291 | 0.0 | 0.9 | 0.00 | 0.00 | 0.00 | 83 | 1011.6 |
| 20260904130814 | 61 | 322 | 0.0 | 0.9 | 0.00 | 0.00 | 0.00 | 83 | 1011.4 |
| 20260904130313 | 61 | 267 | 0.9 | 0.9 | 0.00 | 0.00 | 0.00 | 83 | 1011.5 |
| 20260904125809 | 62 | 8 | 0.0 | 0.0 | 0.00 | 0.00 | 0.00 | 82 | 1011.3 |
| 20260904125306 | 62 | 280 | 0.0 | 0.9 | 0.00 | 0.00 | 0.00 | 82 | 1011.1 |
| 20260904124804 | 62 | 295 | 0.0 | 0.9 | 0.00 | 0.00 | 0.00 | 82 | 1011.1 |
| 20260904124301 | 62 | 210 | 0.0 | 0.0 | 0.00 | 0.00 | 0.00 | 82 | 1011.2 |
| 20260904123755 | 62 | 250 | 0.9 | 0.9 | 0.00 | 0.00 | 0.00 | 82 | 1011.2 |
| 20260904123251 | 62 | 245 | 0.9 | 0.9 | 0.00 | 0.00 | 0.00 | 82 | 1011.0 |
| 20260904122746 | 62 | 284 | 0.0 | 0.9 | 0.00 | 0.00 | 0.00 | 81 | 1011.0 |
| 20260904122245 | 62 | 260 | 0.9 | 0.9 | 0.00 | 0.00 | 0.00 | 81 | 1011.0 |
| 20260904121741 | 62 | 276 | 0.9 | 0.9 | 0.00 | 0.00 | 0.00 | 81 | 1011.1 |
| 20260904121237 | 62 | 274 | 0.9 | 0.9 | 0.00 | 0.00 | 0.00 | 81 | 1011.2 |
| 20260904120733 | 62 | 284 | 0.0 | 0.9 | 0.00 | 0.00 | 0.00 | 81 | 1011.1 |
| 20260904120229 | 62 | 264 | 1.7 | 3.5 | 0.00 | 0.00 | 0.00 | 80 | 1010.8 |
| 20260904115724 | 62 | 261 | 1.7 | 3.5 | 0.00 | 0.00 | 0.00 | 80 | 1011.2 |
| 20260904115223 | 62 | 259 | 0.9 | 0.9 | 0.00 | 0.00 | 0.00 | 80 | 1011.4 |
| 20260904114719 | 62 | 280 | 0.9 | 0.9 | 0.00 | 0.00 | 0.00 | 80 | 1011.1 |
| 20260904114213 | 62 | 139 | 0.0 | 0.9 | 0.00 | 0.00 | 0.00 | 80 | 1011.2 |
| 20260904113708 | 63 | 244 | 0.9 | 0.9 | 0.00 | 0.00 | 0.00 | 80 | 1010.9 |
| 20260904113207 | 62 | 242 | 0.9 | 1.7 | 0.00 | 0.00 | 0.00 | 80 | 1011.0 |
| 20260904112703 | 62 | 255 | 1.7 | 1.7 | 0.00 | 0.00 | 0.00 | 80 | 1010.9 |
| 20260904112158 | 62 | 106 | 0.0 | 0.0 | 0.00 | 0.00 | 0.00 | 79 | 1010.9 |
| 20260904111654 | 63 | 2 | 0.0 | 0.0 | 0.00 | 0.00 | 0.00 | 79 | 1010.9 |
| 20260904111149 | 63 | 42 | 0.9 | 1.7 | 0.00 | 0.00 | 0.00 | 79 | 1010.9 |
| 20260904110644 | 63 | 67 | 0.9 | 1.7 | 0.00 | 0.00 | 0.00 | 79 | 1010.6 |
| 20260904110143 | 63 | 61 | 0.0 | 0.0 | 0.00 | 0.00 | 0.00 | 79 | 1010.6 |
| 20260904105638 | 63 | 210 | 0.0 | 0.9 | 0.00 | 0.00 | 0.00 | 79 | 1010.6 |
| 20260904105133 | 63 | 255 | 0.9 | 0.9 | 0.00 | 0.00 | 0.00 | 79 | 1010.9 |
| 20260904104629 | 63 | 132 | 0.0 | 0.0 | 0.00 | 0.00 | 0.00 | 78 | 1010.5 |
| 20260904104124 | 63 | 229 | 0.9 | 0.9 | 0.00 | 0.00 | 0.00 | 79 | 1010.6 |
| 20260904103620 | 63 | 69 | 0.0 | 0.0 | 0.00 | 0.00 | 0.00 | 79 | 1010.5 |
| 20260904103116 | 63 | 61 | 0.0 | 0.9 | 0.00 | 0.00 | 0.00 | 78 | 1010.5 |
| 20260904102612 | 63 | 223 | 0.9 | 0.9 | 0.00 | 0.00 | 0.00 | 78 | 1010.3 |
| 20260904102107 | 63 | 174 | 0.0 | 0.0 | 0.00 | 0.00 | 0.00 | 78 | 1010.4 |
| 20260904101603 | 63 | 14 | 0.0 | 0.0 | 0.00 | 0.00 | 0.00 | 78 | 1010.3 |
| 20260904101058 | 63 | 284 | 0.9 | 1.7 | 0.00 | 0.00 | 0.00 | 77 | 1010.5 |
| 20260904100555 | 64 | 273 | 1.7 | 1.7 | 0.00 | 0.00 | 0.00 | 77 | 1010.3 |
| 20260904100049 | 64 | 238 | 1.7 | 1.7 | 0.00 | 0.00 | 0.00 | 77 | 1010.2 |
| 20260904095544 | 64 | 243 | 1.7 | 1.7 | 0.00 | 0.00 | 0.00 | 76 | 1010.3 |
| 20260904095039 | 64 | 264 | 1.7 | 1.7 | 0.00 | 0.00 | 0.00 | 76 | 1010.2 |
| 20260904094533 | 64 | 240 | 3.5 | 4.3 | 0.00 | 0.00 | 0.00 | 76 | 1010.2 |
| 20260904094028 | 64 | 261 | 2.6 | 3.5 | 0.00 | 0.00 | 0.00 | 76 | 1010.0 |
| 20260904093525 | 64 | 294 | 1.7 | 1.7 | 0.00 | 0.00 | 0.00 | 75 | 1010.4 |
| 20260904093020 | 64 | 282 | 1.7 | 3.5 | 0.00 | 0.00 | 0.00 | 75 | 1010.1 |
| 20260904092516 | 64 | 264 | 1.7 | 1.7 | 0.00 | 0.00 | 0.00 | 75 | 1010.1 |
| 20260904092012 | 64 | 249 | 2.6 | 4.3 | 0.00 | 0.00 | 0.00 | 74 | 1010.0 |
| 20260904091508 | 65 | 255 | 2.6 | 3.5 | 0.00 | 0.00 | 0.00 | 74 | 1010.0 |
| 20260904091008 | 65 | 262 | 0.9 | 0.9 | 0.00 | 0.00 | 0.00 | 74 | 1009.9 |
| 20260904090503 | 65 | 250 | 3.5 | 4.3 | 0.00 | 0.00 | 0.00 | 73 | 1010.2 |
| 20260904090003 | 65 | 256 | 3.5 | 4.3 | 0.00 | 0.00 | 0.00 | 73 | 1010.0 |
| 20260904085458 | 66 | 281 | 3.5 | 4.3 | 0.00 | 0.00 | 0.00 | 73 | 1010.0 |
| 20260904084953 | 66 | 243 | 0.9 | 1.7 | 0.00 | 0.00 | 0.00 | 73 | 1010.2 |
| 20260904084449 | 66 | 239 | 2.6 | 3.5 | 0.00 | 0.00 | 0.00 | 73 | 1010.2 |
| 20260904083944 | 66 | 258 | 1.7 | 1.7 | 0.00 | 0.00 | 0.00 | 72 | 1010.0 |
| 20260904083441 | 66 | 227 | 1.7 | 1.7 | 0.00 | 0.00 | 0.00 | 72 | 1010.2 |
| 20260904082936 | 66 | 235 | 4.3 | 5.2 | 0.00 | 0.00 | 0.00 | 72 | 1010.1 |
| 20260904082431 | 66 | 240 | 2.6 | 5.2 | 0.00 | 0.00 | 0.00 | 71 | 1010.2 |
| 20260904081926 | 66 | 277 | 1.7 | 1.7 | 0.00 | 0.00 | 0.00 | 71 | 1010.2 |
| 20260904081422 | 66 | 275 | 1.7 | 1.7 | 0.00 | 0.00 | 0.00 | 71 | 1010.0 |
| 20260904080918 | 66 | 266 | 0.9 | 0.9 | 0.00 | 0.00 | 0.00 | 70 | 1010.1 |
| 20260904080413 | 67 | 251 | 0.9 | 1.7 | 0.00 | 0.00 | 0.00 | 70 | 1010.2 |
| 20260904075909 | 67 | 246 | 1.7 | 3.5 | 0.00 | 0.00 | 0.00 | 70 | 1010.0 |
| 20260904075404 | 67 | 243 | 2.6 | 3.5 | 0.00 | 0.00 | 0.00 | 70 | 1010.0 |
| 20260904074903 | 67 | 246 | 0.9 | 1.7 | 0.00 | 0.00 | 0.00 | 69 | 1010.1 |
| 20260904074358 | 67 | 255 | 2.6 | 3.5 | 0.00 | 0.00 | 0.00 | 70 | 1010.0 |
| 20260904073854 | 67 | 238 | 2.6 | 3.5 | 0.00 | 0.00 | 0.00 | 69 | 1009.8 |
| 20260904073349 | 67 | 243 | 3.5 | 4.3 | 0.00 | 0.00 | 0.00 | 69 | 1009.8 |
| 20260904072844 | 67 | 296 | 2.6 | 3.5 | 0.00 | 0.00 | 0.00 | 69 | 1009.8 |
| 20260904072339 | 67 | 230 | 0.9 | 1.7 | 0.00 | 0.00 | 0.00 | 69 | 1009.8 |
| 20260904071834 | 68 | 262 | 1.7 | 1.7 | 0.00 | 0.00 | 0.00 | 68 | 1009.8 |
| 20260904071330 | 68 | 259 | 2.6 | 4.3 | 0.00 | 0.00 | 0.00 | 68 | 1009.8 |
| 20260904070825 | 68 | 243 | 2.6 | 3.5 | 0.00 | 0.00 | 0.00 | 68 | 1009.7 |
| 20260904070323 | 68 | 258 | 1.7 | 1.7 | 0.00 | 0.00 | 0.00 | 67 | 1009.9 |
| 20260904065818 | 68 | 250 | 2.6 | 3.5 | 0.00 | 0.00 | 0.00 | 67 | 1009.8 |
| 20260904065314 | 68 | 341 | 2.6 | 3.5 | 0.00 | 0.00 | 0.00 | 67 | 1010.0 |
| 20260904064809 | 68 | 280 | 2.6 | 3.5 | 0.00 | 0.00 | 0.00 | 66 | 1009.9 |
| 20260904064305 | 68 | 235 | 0.9 | 1.7 | 0.00 | 0.00 | 0.00 | 65 | 1009.8 |
| 20260904063801 | 68 | 243 | 2.6 | 3.5 | 0.00 | 0.00 | 0.00 | 65 | 1009.9 |
| 20260904063256 | 68 | 271 | 2.6 | 3.5 | 0.00 | 0.00 | 0.00 | 64 | 1009.7 |
| 20260904062752 | 68 | 249 | 2.6 | 3.5 | 0.00 | 0.00 | 0.00 | 64 | 1010.0 |
| 20260904062248 | 69 | 242 | 1.7 | 1.7 | 0.00 | 0.00 | 0.00 | 63 | 1009.7 |
| 20260904061743 | 69 | 245 | 3.5 | 4.3 | 0.00 | 0.00 | 0.00 | 63 | 1009.7 |
| 20260904061239 | 69 | 229 | 1.7 | 1.7 | 0.00 | 0.00 | 0.00 | 63 | 1009.7 |
| 20260904060736 | 69 | 263 | 1.7 | 1.7 | 0.00 | 0.00 | 0.00 | 62 | 1009.5 |
| 20260904060231 | 69 | 262 | 2.6 | 3.5 | 0.00 | 0.00 | 0.00 | 61 | 1009.4 |
| 20260904055726 | 69 | 295 | 2.6 | 3.5 | 0.00 | 0.00 | 0.00 | 61 | 1009.5 |
| 20260904055221 | 69 | 278 | 2.6 | 3.5 | 0.00 | 0.00 | 0.00 | 60 | 1009.4 |
| 20260904054717 | 69 | 262 | 0.9 | 0.9 | 0.00 | 0.00 | 0.00 | 60 | 1009.5 |
| 20260904054213 | 69 | 283 | 2.6 | 3.5 | 0.00 | 0.00 | 0.00 | 60 | 1009.4 |
| 20260904053708 | 70 | 27 | 0.0 | 0.0 | 0.00 | 0.00 | 0.00 | 58 | 1009.6 |
| 20260904053207 | 70 | 255 | 2.6 | 3.5 | 0.00 | 0.00 | 0.00 | 58 | 1009.4 |
| 20260904052704 | 70 | 244 | 2.6 | 3.5 | 0.00 | 0.00 | 0.00 | 57 | 1009.5 |
| 20260904052200 | 70 | 247 | 1.7 | 1.7 | 0.00 | 0.00 | 0.00 | 56 | 1009.6 |
| 20260904051656 | 70 | 247 | 1.7 | 1.7 | 0.00 | 0.00 | 0.00 | 55 | 1009.6 |
| 20260904051150 | 71 | 256 | 3.5 | 5.2 | 0.00 | 0.00 | 0.00 | 55 | 1009.6 |
| 20260904050646 | 71 | 258 | 3.5 | 4.3 | 0.00 | 0.00 | 0.00 | 54 | 1009.6 |
| 20260904050137 | 71 | 207 | 2.6 | 3.5 | 0.00 | 0.00 | 0.00 | 53 | 1009.5 |
| 20260904045636 | 72 | 296 | 5.2 | 6.1 | 0.00 | 0.00 | 0.00 | 52 | 1009.8 |
| 20260904045131 | 72 | 263 | 3.5 | 4.3 | 0.00 | 0.00 | 0.00 | 50 | 1009.7 |
| 20260904044626 | 72 | 262 | 4.3 | 6.1 | 0.00 | 0.00 | 0.00 | 50 | 1009.5 |
| 20260904044123 | 72 | 235 | 4.3 | 6.1 | 0.00 | 0.00 | 0.00 | 48 | 1009.4 |
| 20260904043619 | 73 | 253 | 5.2 | 7.0 | 0.00 | 0.00 | 0.00 | 48 | 1009.4 |
| 20260904043115 | 73 | 264 | 1.7 | 1.7 | 0.00 | 0.00 | 0.00 | 47 | 1009.3 |
| 20260904042611 | 73 | 234 | 2.6 | 3.5 | 0.00 | 0.00 | 0.00 | 46 | 1009.4 |
| 20260904042106 | 74 | 261 | 3.5 | 4.3 | 0.00 | 0.00 | 0.00 | 45 | 1009.2 |
| 20260904041601 | 74 | 250 | 1.7 | 1.7 | 0.00 | 0.00 | 0.00 | 43 | 1009.3 |
| 20260904041057 | 74 | 298 | 3.5 | 4.3 | 0.00 | 0.00 | 0.00 | 41 | 1009.2 |
| 20260904040557 | 74 | 276 | 1.7 | 1.7 | 0.00 | 0.00 | 0.00 | 43 | 1009.1 |
| 20260904040054 | 74 | 293 | 4.3 | 5.2 | 0.00 | 0.00 | 0.00 | 44 | 1009.0 |
| 20260904035549 | 74 | 241 | 2.6 | 3.5 | 0.00 | 0.00 | 0.00 | 48 | 1008.9 |
| 20260904035049 | 75 | 259 | 1.7 | 1.7 | 0.00 | 0.00 | 0.00 | 47 | 1009.1 |
| 20260904034543 | 75 | 242 | 0.9 | 0.9 | 0.00 | 0.00 | 0.00 | 47 | 1008.8 |
| 20260904034039 | 75 | 258 | 0.0 | 0.0 | 0.00 | 0.00 | 0.00 | 47 | 1009.0 |
| 20260904033535 | 75 | 264 | 0.9 | 1.7 | 0.00 | 0.00 | 0.00 | 47 | 1009.1 |
| 20260904033032 | 75 | 262 | 0.9 | 0.9 | 0.00 | 0.00 | 0.00 | 47 | 1008.7 |
| 20260904032528 | 76 | 271 | 0.0 | 0.0 | 0.00 | 0.00 | 0.00 | 47 | 1008.6 |
| 20260904032026 | 76 | 292 | 0.0 | 0.9 | 0.00 | 0.00 | 0.00 | 46 | 1008.4 |
| 20260904031521 | 76 | 307 | 0.0 | 0.0 | 0.00 | 0.00 | 0.00 | 45 | 1008.5 |
| 20260904031017 | 76 | 269 | 0.9 | 0.9 | 0.00 | 0.00 | 0.00 | 46 | 1008.5 |
| 20260904030513 | 76 | 313 | 0.0 | 0.0 | 0.00 | 0.00 | 0.00 | 47 | 1008.5 |
| 20260904030008 | 76 | 345 | 0.0 | 0.0 | 0.00 | 0.00 | 0.00 | 46 | 1008.5 |
| 20260904025504 | 77 | 294 | 0.0 | 0.0 | 0.00 | 0.00 | 0.00 | 45 | 1008.4 |
| 20260904025004 | 77 | 294 | 0.0 | 0.0 | 0.00 | 0.00 | 0.00 | 44 | 1008.4 |
| 20260904024459 | 78 | 294 | 0.0 | 0.0 | 0.00 | 0.00 | 0.00 | 45 | 1008.7 |
| 20260904023955 | 78 | 292 | 0.9 | 0.9 | 0.00 | 0.00 | 0.00 | 44 | 1008.8 |
| 20260904023451 | 79 | 273 | 1.7 | 1.7 | 0.00 | 0.00 | 0.00 | 44 | 1008.5 |
| 20260904022950 | 79 | 269 | 0.9 | 1.7 | 0.00 | 0.00 | 0.00 | 41 | 1008.7 |
| 20260904022446 | 79 | 355 | 0.0 | 0.9 | 0.00 | 0.00 | 0.00 | 42 | 1008.4 |
| 20260904021943 | 80 | 69 | 0.0 | 0.0 | 0.00 | 0.00 | 0.00 | 41 | 1008.6 |
| 20260904021439 | 81 | 69 | 0.0 | 0.0 | 0.00 | 0.00 | 0.00 | 40 | 1008.6 |
| 20260904020939 | 82 | 69 | 0.0 | 0.0 | 0.00 | 0.00 | 0.00 | 38 | 1008.7 |
| 20260904020434 | 82 | 354 | 0.0 | 0.0 | 0.00 | 0.00 | 0.00 | 37 | 1008.9 |
| 20260904015932 | 82 | 354 | 0.0 | 0.9 | 0.00 | 0.00 | 0.00 | 33 | 1008.9 |
| 20260904015428 | 83 | 60 | 0.0 | 0.0 | 0.00 | 0.00 | 0.00 | 36 | 1009.0 |
| 20260904014926 | 83 | 321 | 0.0 | 0.0 | 0.00 | 0.00 | 0.00 | 35 | 1008.8 |
| 20260904014422 | 84 | 132 | 0.9 | 0.9 | 0.00 | 0.00 | 0.00 | 31 | 1008.8 |
| 20260904013917 | 84 | 15 | 0.9 | 0.9 | 0.00 | 0.00 | 0.00 | 31 | 1009.0 |
| 20260904013413 | 85 | 280 | 0.0 | 0.0 | 0.00 | 0.00 | 0.00 | 31 | 1008.9 |
| 20260904012909 | 85 | 12 | 0.9 | 0.9 | 0.00 | 0.00 | 0.00 | 31 | 1009.0 |
| 20260904012409 | 86 | 24 | 0.0 | 0.0 | 0.00 | 0.00 | 0.00 | 29 | 1009.0 |
| 20260904011903 | 85 | 31 | 0.0 | 0.0 | 0.00 | 0.00 | 0.00 | 29 | 1008.7 |
| 20260904011358 | 86 | 19 | 0.0 | 0.0 | 0.00 | 0.00 | 0.00 | 29 | 1008.9 |
| 20260904010853 | 86 | 37 | 0.0 | 0.0 | 0.00 | 0.00 | 0.00 | 29 | 1009.0 |
| 20260904010350 | 86 | 55 | 0.0 | 0.9 | 0.00 | 0.00 | 0.00 | 29 | 1008.8 |
| 20260904005844 | 87 | 58 | 0.0 | 0.0 | 0.00 | 0.00 | 0.00 | 27 | 1009.0 |
| 20260904005340 | 86 | 81 | 0.0 | 0.9 | 0.00 | 0.00 | 0.00 | 28 | 1009.0 |
| 20260904004835 | 86 | 239 | 0.0 | 0.9 | 0.00 | 0.00 | 0.00 | 29 | 1009.0 |
| 20260904004332 | 87 | 339 | 0.9 | 0.9 | 0.00 | 0.00 | 0.00 | 28 | 1009.1 |
| 20260904003832 | 86 | 250 | 0.9 | 1.7 | 0.00 | 0.00 | 0.00 | 28 | 1009.1 |
| 20260904003328 | 86 | 291 | 1.7 | 1.7 | 0.00 | 0.00 | 0.00 | 28 | 1009.1 |
| 20260904002823 | 85 | 283 | 0.0 | 0.9 | 0.00 | 0.00 | 0.00 | 29 | 1009.2 |
| 20260904002319 | 86 | 275 | 2.6 | 3.5 | 0.00 | 0.00 | 0.00 | 29 | 1009.1 |
| 20260904001818 | 86 | 39 | 0.9 | 1.7 | 0.00 | 0.00 | 0.00 | 29 | 1009.2 |
| 20260904001313 | 86 | 259 | 3.5 | 4.3 | 0.00 | 0.00 | 0.00 | 30 | 1009.1 |
| 20260904000808 | 86 | 247 | 3.5 | 4.3 | 0.00 | 0.00 | 0.00 | 28 | 1009.1 |
| 20260904000307 | 86 | 276 | 0.9 | 0.9 | 0.00 | 0.00 | 0.00 | 28 | 1009.2 |
| 20260903235802 | 86 | 258 | 1.7 | 1.7 | 0.00 | 0.00 | 0.00 | 29 | 1009.3 |
| 20260903235259 | 87 | 273 | 3.5 | 4.3 | 0.00 | 0.00 | 0.00 | 29 | 1009.5 |